Precipitable_Water
0.22 0.20 0.18 0.19 0.18 0.18 0.19 0.21 0.23 0.24 0.24 0.24 0.23 0.22 0.21 0.20 0.19 0.19 0.19 0.21 0.21 0.21 0.21 0.22 0.21 0.20 0.22 0.25 0.27 0.28 0.28 0.26 0.24 0.24 0.25 0.25 0.24 0.24 0.25 0.25 0.25 0.26 0.30 0.38 0.42 0.46 0.51 0.55 0.57 0.61 0.65 0.65
0.25 0.23 0.20 0.19 0.18 0.17 0.17 0.19 0.20 0.22 0.22 0.21 0.21 0.20 0.20 0.19 0.18 0.18 0.20 0.21 0.21 0.21 0.21 0.21 0.20 0.19 0.21 0.23 0.25 0.26 0.26 0.25 0.23 0.23 0.24 0.24 0.24 0.24 0.22 0.22 0.21 0.19 0.19 0.24 0.35 0.42 0.47 0.52 0.56 0.57 0.61 0.63
0.24 0.24 0.22 0.21 0.20 0.18 0.17 0.18 0.19 0.20 0.20 0.20 0.20 0.20 0.20 0.19 0.19 0.19 0.20 0.20 0.20 0.21 0.20 0.20 0.19 0.18 0.20 0.21 0.23 0.24 0.23 0.23 0.21 0.21 0.23 0.24 0.22 0.22 0.20 0.19 0.17 0.16 0.17 0.19 0.20 0.31 0.40 0.46 0.51 0.55 0.57 0.59
0.25 0.25 0.23 0.23 0.23 0.21 0.20 0.20 0.19 0.19 0.20 0.21 0.21 0.21 0.21 0.20 0.19 0.19 0.19 0.19 0.19 0.20 0.19 0.19 0.18 0.18 0.19 0.20 0.22 0.22 0.21 0.21 0.19 0.20 0.21 0.21 0.21 0.19 0.18 0.16 0.14 0.14 0.15 0.16 0.17 0.19 0.24 0.35 0.43 0.49 0.53 0.56
0.27 0.27 0.26 0.26 0.24 0.23 0.23 0.21 0.22 0.20 0.21 0.21 0.21 0.21 0.21 0.20 0.18 0.19 0.18 0.18 0.18 0.19 0.19 0.17 0.18 0.18 0.18 0.19 0.21 0.20 0.20 0.18 0.19 0.19 0.19 0.19 0.19 0.18 0.16 0.15 0.14 0.15 0.14 0.14 0.15 0.16 0.17 0.19 0.29 0.42 0.49 0.53
0.28 0.28 0.27 0.26 0.25 0.25 0.24 0.24 0.23 0.23 0.21 0.21 0.21 0.22 0.21 0.20 0.19 0.19 0.19 0.19 0.19 0.19 0.18 0.18 0.19 0.19 0.18 0.19 0.20 0.20 0.19 0.18 0.19 0.19 0.18 0.18 0.18 0.18 0.17 0.16 0.15 0.15 0.15 0.14 0.14 0.14 0.15 0.15 0.18 0.29 0.42 0.50
0.29 0.29 0.28 0.26 0.26 0.26 0.26 0.25 0.25 0.24 0.22 0.21 0.21 0.22 0.22 0.21 0.20 0.20 0.20 0.20 0.20 0.19 0.19 0.19 0.19 0.18 0.18 0.19 0.19 0.19 0.18 0.18 0.18 0.18 0.18 0.18 0.18 0.18 0.18 0.16 0.16 0.14 0.16 0.15 0.13 0.13 0.13 0.14 0.15 0.18 0.27 0.43
0.29 0.28 0.28 0.27 0.27 0.26 0.26 0.25 0.25 0.24 0.22 0.21 0.21 0.21 0.21 0.21 0.21 0.22 0.22 0.21 0.20 0.20 0.19 0.18 0.18 0.19 0.19 0.18 0.18 0.18 0.17 0.18 0.17 0.17 0.17 0.17 0.17 0.16 0.16 0.17 0.16 0.15 0.14 0.15 0.14 0.12 0.13 0.13 0.13 0.15 0.18 0.25
0.30 0.29 0.28 0.27 0.27 0.26 0.25 0.24 0.24 0.24 0.22 0.21 0.20 0.20 0.21 0.22 0.23 0.23 0.22 0.21 0.21 0.20 0.19 0.19 0.19 0.19 0.19 0.18 0.17 0.18 0.17 0.17 0.17 0.17 0.16 0.16 0.16 0.16 0.15 0.15 0.16 0.15 0.14 0.14 0.14 0.13 0.12 0.12 0.13 0.13 0.16 0.19
0.29 0.28 0.28 0.26 0.25 0.24 0.24 0.23 0.23 0.23 0.22 0.20 0.20 0.19 0.20 0.21 0.22 0.22 0.22 0.21 0.21 0.21 0.20 0.19 0.19 0.19 0.19 0.18 0.18 0.17 0.17 0.16 0.16 0.16 0.16 0.15 0.15 0.16 0.16 0.15 0.16 0.16 0.16 0.15 0.14 0.13 0.12 0.12 0.12 0.12 0.14 0.16
0.27 0.27 0.26 0.25 0.25 0.24 0.24 0.24 0.23 0.23 0.22 0.21 0.20 0.20 0.20 0.20 0.21 0.22 0.21 0.21 0.21 0.20 0.20 0.19 0.19 0.19 0.19 0.18 0.17 0.17 0.16 0.16 0.16 0.16 0.16 0.15 0.15 0.16 0.15 0.15 0.15 0.16 0.16 0.16 0.15 0.14 0.13 0.13 0.12 0.12 0.12 0.13
0.26 0.26 0.25 0.25 0.25 0.25 0.25 0.24 0.23 0.23 0.22 0.22 0.21 0.21 0.20 0.21 0.21 0.21 0.21 0.21 0.21 0.21 0.20 0.19 0.20 0.19 0.19 0.19 0.18 0.17 0.16 0.16 0.16 0.16 0.16 0.15 0.15 0.15 0.15 0.15 0.15 0.15 0.16 0.16 0.16 0.15 0.14 0.13 0.12 0.12 0.12 0.12
0.26 0.25 0.24 0.24 0.24 0.23 0.23 0.23 0.23 0.23 0.23 0.23 0.22 0.22 0.21 0.21 0.21 0.21 0.20 0.21 0.21 0.21 0.20 0.19 0.19 0.19 0.19 0.19 0.18 0.17 0.16 0.16 0.16 0.16 0.15 0.15 0.15 0.15 0.15 0.15 0.15 0.15 0.16 0.16 0.16 0.15 0.14 0.14 0.13 0.12 0.12 0.11
0.25 0.24 0.24 0.23 0.23 0.23 0.23 0.23 0.24 0.24 0.24 0.24 0.24 0.23 0.22 0.21 0.21 0.21 0.20 0.20 0.21 0.21 0.20 0.19 0.19 0.19 0.19 0.19 0.18 0.17 0.16 0.16 0.16 0.16 0.15 0.15 0.15 0.15 0.15 0.14 0.15 0.15 0.15 0.15 0.15 0.16 0.15 0.14 0.13 0.13 0.12 0.11
0.24 0.23 0.23 0.23 0.24 0.24 0.24 0.25 0.26 0.26 0.26 0.26 0.25 0.24 0.23 0.22 0.21 0.21 0.21 0.20 0.20 0.21 0.20 0.19 0.18 0.18 0.18 0.18 0.17 0.17 0.17 0.16 0.16 0.16 0.15 0.15 0.15 0.15 0.15 0.15 0.15 0.15 0.15 0.15 0.15 0.15 0.15 0.14 0.13 0.12 0.12 0.11
0.24 0.23 0.24 0.24 0.25 0.25 0.26 0.27 0.27 0.27 0.27 0.26 0.26 0.25 0.24 0.23 0.22 0.21 0.20 0.20 0.20 0.21 0.21 0.20 0.18 0.18 0.18 0.17 0.17 0.17 0.17 0.17 0.17 0.16 0.16 0.16 0.16 0.16 0.16 0.16 0.16 0.16 0.15 0.16 0.15 0.15 0.15 0.14 0.13 0.12 0.11 0.11
0.26 0.27 0.27 0.27 0.28 0.28 0.28 0.28 0.28 0.27 0.26 0.26 0.26 0.26 0.25 0.24 0.22 0.21 0.20 0.19 0.19 0.20 0.21 0.20 0.19 0.18 0.18 0.17 0.17 0.17 0.17 0.17 0.17 0.17 0.16 0.16 0.16 0.16 0.16 0.15 0.15 0.16 0.16 0.15 0.15 0.16 0.15 0.14 0.13 0.12 0.11 0.11
0.28 0.29 0.29 0.30 0.29 0.29 0.29 0.29 0.28 0.27 0.27 0.27 0.26 0.26 0.25 0.24 0.22 0.21 0.21 0.20 0.20 0.20 0.20 0.20 0.19 0.18 0.18 0.18 0.18 0.17 0.17 0.17 0.17 0.16 0.16 0.15 0.15 0.15 0.15 0.15 0.15 0.15 0.15 0.15 0.16 0.15 0.15 0.14 0.13 0.12 0.11 0.10
0.31 0.31 0.31 0.31 0.31 0.30 0.30 0.29 0.28 0.27 0.26 0.26 0.26 0.25 0.24 0.24 0.23 0.22 0.21 0.21 0.20 0.20 0.21 0.20 0.19 0.18 0.18 0.18 0.18 0.17 0.17 0.17 0.16 0.16 0.16 0.15 0.14 0.15 0.15 0.15 0.15 0.16 0.16 0.15 0.15 0.15 0.15 0.14 0.13 0.12 0.11 0.11
0.30 0.30 0.30 0.31 0.31 0.30 0.30 0.29 0.28 0.27 0.26 0.25 0.25 0.25 0.24 0.24 0.24 0.22 0.22 0.22 0.21 0.21 0.21 0.20 0.19 0.18 0.18 0.18 0.18 0.18 0.17 0.17 0.16 0.16 0.16 0.16 0.15 0.14 0.14 0.14 0.14 0.15 0.15 0.15 0.15 0.15 0.15 0.14 0.12 0.11 0.11 0.11
0.31 0.29 0.28 0.28 0.29 0.29 0.29 0.28 0.28 0.27 0.26 0.25 0.25 0.25 0.25 0.25 0.24 0.24 0.23 0.22 0.23 0.22 0.21 0.20 0.20 0.19 0.19 0.19 0.18 0.18 0.17 0.17 0.16 0.16 0.16 0.15 0.16 0.15 0.14 0.14 0.14 0.15 0.15 0.15 0.15 0.15 0.14 0.13 0.12 0.12 0.12 0.12
0.31 0.30 0.29 0.28 0.28 0.28 0.28 0.28 0.28 0.27 0.26 0.26 0.26 0.26 0.25 0.25 0.25 0.25 0.23 0.23 0.24 0.23 0.22 0.21 0.20 0.20 0.19 0.19 0.18 0.17 0.17 0.17 0.17 0.16 0.16 0.15 0.15 0.14 0.14 0.14 0.14 0.14 0.14 0.15 0.15 0.14 0.14 0.14 0.13 0.13 0.13 0.13
0.30 0.29 0.28 0.28 0.27 0.27 0.27 0.27 0.27 0.27 0.27 0.27 0.27 0.26 0.26 0.26 0.26 0.25 0.24 0.24 0.24 0.23 0.22 0.21 0.21 0.20 0.20 0.19 0.19 0.18 0.17 0.16 0.16 0.16 0.16 0.15 0.15 0.15 0.15 0.14 0.14 0.14 0.14 0.14 0.15 0.14 0.14 0.14 0.13 0.13 0.13 0.13
0.30 0.29 0.28 0.27 0.26 0.25 0.26 0.26 0.27 0.28 0.27 0.27 0.27 0.27 0.27 0.27 0.26 0.26 0.25 0.24 0.25 0.24 0.23 0.22 0.21 0.20 0.20 0.20 0.19 0.18 0.17 0.16 0.16 0.16 0.16 0.16 0.15 0.14 0.14 0.15 0.15 0.15 0.14 0.14 0.14 0.13 0.14 0.14 0.13 0.13 0.13 0.12
0.29 0.28 0.27 0.27 0.26 0.25 0.25 0.25 0.26 0.26 0.27 0.27 0.27 0.27 0.27 0.27 0.27 0.26 0.26 0.25 0.25 0.24 0.24 0.23 0.22 0.21 0.20 0.20 0.19 0.18 0.17 0.16 0.16 0.16 0.16 0.16 0.15 0.14 0.13 0.13 0.15 0.15 0.15 0.14 0.13 0.13 0.13 0.13 0.13 0.14 0.14 0.13
0.29 0.28 0.27 0.26 0.26 0.26 0.25 0.25 0.25 0.25 0.26 0.27 0.27 0.27 0.27 0.27 0.26 0.26 0.25 0.26 0.26 0.25 0.24 0.23 0.22 0.22 0.20 0.20 0.20 0.19 0.18 0.17 0.17 0.17 0.16 0.16 0.14 0.14 0.13 0.13 0.14 0.15 0.15 0.13 0.12 0.11 0.11 0.12 0.14 0.14 0.14 0.15
0.29 0.28 0.28 0.27 0.26 0.26 0.25 0.25 0.25 0.24 0.25 0.25 0.26 0.26 0.27 0.27 0.26 0.25 0.25 0.25 0.26 0.25 0.25 0.24 0.23 0.22 0.21 0.20 0.20 0.19 0.18 0.17 0.16 0.16 0.16 0.15 0.14 0.13 0.13 0.14 0.15 0.15 0.16 0.13 0.13 0.12 0.11 0.10 0.09 0.11 0.14 0.15
0.31 0.29 0.28 0.27 0.27 0.27 0.25 0.24 0.24 0.23 0.24 0.24 0.25 0.25 0.25 0.26 0.26 0.26 0.25 0.25 0.25 0.25 0.25 0.25 0.24 0.23 0.22 0.21 0.21 0.20 0.19 0.17 0.16 0.16 0.16 0.15 0.14 0.14 0.13 0.13 0.14 0.15 0.16 0.15 0.13 0.10 0.11 0.10 0.10 0.08 0.10 0.12
0.32 0.30 0.28 0.27 0.27 0.26 0.25 0.24 0.23 0.23 0.22 0.23 0.24 0.24 0.25 0.25 0.25 0.25 0.25 0.25 0.25 0.25 0.25 0.25 0.24 0.23 0.22 0.22 0.21 0.20 0.19 0.18 0.17 0.16 0.16 0.15 0.14 0.14 0.13 0.13 0.14 0.15 0.16 0.15 0.15 0.13 0.12 0.10 0.10 0.10 0.11 0.10
0.31 0.30 0.29 0.26 0.25 0.24 0.23 0.22 0.23 0.22 0.22 0.23 0.23 0.24 0.24 0.25 0.25 0.25 0.25 0.25 0.25 0.25 0.26 0.25 0.25 0.24 0.23 0.22 0.22 0.21 0.20 0.19 0.17 0.16 0.16 0.16 0.15 0.14 0.14 0.14 0.14 0.14 0.15 0.15 0.15 0.15 0.15 0.13 0.10 0.10 0.11 0.10
0.31 0.29 0.28 0.27 0.26 0.25 0.24 0.23 0.23 0.24 0.23 0.23 0.24 0.24 0.24 0.25 0.25 0.25 0.25 0.24 0.24 0.25 0.26 0.26 0.26 0.24 0.23 0.23 0.22 0.22 0.21 0.19 0.18 0.17 0.16 0.16 0.16 0.15 0.15 0.15 0.14 0.14 0.14 0.14 0.14 0.15 0.15 0.14 0.14 0.14 0.11 0.09
Wind_Speed
30 29 29 29 28 28 28 27 27 27 27 28 28 29 29 29 30 31 31 31 30 31 31 31 32 32 33 33 34 34 35 35 36 37 37 38 39 40 40 41 41 43 45 46 46 46 47 48 49 50 51 53
30 29 29 29 28 27 27 27 27 27 28 28 29 29 29 30 30 31 31 30 31 31 31 32 32 33 33 34 34 35 35 36 36 37 38 38 39 40 40 41 42 42 44 46 47 47 47 48 49 50 50 52
29 29 29 29 28 27 27 27 27 27 28 28 29 29 29 30 31 31 30 30 31 31 32 32 33 33 34 34 35 35 36 36 37 38 38 39 40 40 41 42 42 43 43 44 46 47 48 48 49 50 51 52
29 29 29 28 27 27 27 27 27 28 28 28 29 29 30 31 31 31 30 31 31 32 32 33 33 34 34 35 36 36 36 37 38 39 39 40 41 41 42 43 43 43 43 44 45 47 48 49 50 50 51 52
28 28 28 28 27 27 27 27 28 28 28 29 29 30 30 31 31 31 31 32 32 33 33 34 34 35 35 36 36 37 37 38 38 39 40 41 42 42 43 43 44 44 44 44 45 46 47 48 49 51 51 52
28 28 27 27 27 27 28 28 28 28 28 29 30 30 31 31 31 31 32 33 33 34 34 35 35 35 36 37 37 37 37 38 39 40 41 41 42 43 44 44 44 44 45 45 45 46 46 47 48 50 52 52
27 27 27 27 27 27 28 28 28 29 29 29 30 30 31 32 32 32 33 34 34 35 35 35 36 36 37 37 37 37 38 39 39 40 41 42 43 43 43 44 44 44 45 45 46 46 47 47 47 48 50 53
27 27 27 28 28 28 28 29 29 29 29 30 30 31 31 32 32 33 33 34 35 35 36 36 36 37 37 37 37 38 39 39 40 41 42 42 43 43 43 44 45 45 45 45 46 46 47 47 47 47 48 51
28 28 29 29 28 29 29 29 30 30 30 30 31 31 32 32 33 33 34 35 35 36 36 37 37 37 37 37 38 39 39 39 40 41 42 42 43 43 44 45 45 45 45 45 46 46 47 47 47 47 48 49
29 29 30 29 29 29 30 30 30 30 31 31 31 32 32 32 33 34 35 35 36 36 37 37 37 37 37 38 39 39 39 40 41 41 42 42 43 43 44 45 46 46 46 46 46 46 46 47 47 47 48 49
30 30 30 30 30 30 30 30 30 31 31 31 32 32 32 33 34 34 35 36 36 37 37 38 38 38 38 39 39 39 40 41 41 42 42 43 43 44 45 45 46 46 46 46 46 46 46 46 47 47 48 48
30 30 30 30 31 31 31 31 31 32 32 32 33 33 33 34 34 35 36 36 37 37 38 38 38 38 39 39 40 40 40 41 42 42 43 43 44 44 45 45 46 46 46 46 46 46 46 46 46 47 47 48
31 31 31 31 31 31 31 32 32 32 33 33 33 34 34 35 35 36 37 37 37 38 38 38 39 39 39 40 40 40 41 41 42 42 43 44 44 45 45 46 46 45 45 45 45 45 45 45 46 46 47 48
31 31 31 32 32 32 32 32 32 33 34 34 34 35 35 35 36 37 37 37 38 38 38 39 39 39 40 40 40 41 41 42 42 43 43 44 44 45 46 46 46 45 45 44 44 44 44 44 45 46 46 47
32 32 32 32 32 33 33 33 34 34 34 35 35 36 36 36 37 37 38 38 38 39 39 39 39 40 40 40 41 41 41 42 42 43 44 44 45 45 46 46 46 45 44 44 44 43 44 44 44 45 45 46
32 33 33 33 33 34 34 34 35 35 35 36 36 37 37 37 38 38 38 39 39 39 39 40 40 40 41 41 41 42 42 42 43 43 44 44 45 45 46 46 45 45 44 43 43 43 43 43 44 44 45 45
33 34 34 34 35 35 35 36 36 36 36 37 37 38 38 38 39 39 39 39 40 40 40 40 40 41 41 41 42 42 42 43 43 43 43 44 44 45 45 45 44 44 43 42 42 42 42 43 43 43 44 44
34 35 35 36 36 36 37 37 37 37 38 38 38 39 39 39 39 40 40 40 40 41 41 41 41 41 41 42 42 42 42 43 43 43 43 44 44 44 44 44 44 43 42 41 41 41 42 42 42 42 43 43
35 36 36 37 37 38 38 38 39 39 39 39 40 40 40 40 40 40 40 41 41 41 41 41 41 41 41 42 42 42 42 43 43 43 43 43 44 44 44 44 43 42 42 41 41 41 40 41 41 42 42 42
37 37 38 38 39 39 39 40 40 40 40 40 41 41 41 41 41 41 41 41 42 41 41 42 42 42 42 42 42 42 43 43 43 43 43 43 43 44 44 43 43 42 41 41 40 40 40 40 41 40 41 41
37 38 39 39 40 40 40 41 41 41 42 42 42 42 42 42 42 42 42 42 42 42 42 42 42 42 42 42 42 42 42 42 42 42 42 42 43 43 43 43 42 41 40 40 39 39 40 40 39 39 39 39
38 39 39 40 40 41 41 42 42 42 43 43 43 43 43 43 43 43 43 43 42 42 42 42 42 42 42 42 42 42 42 42 42 42 42 42 42 43 42 42 41 41 40 39 38 39 39 39 38 38 37 37
40 40 41 41 41 42 42 43 43 43 43 43 44 44 44 44 44 43 43 43 43 42 42 42 42 42 42 42 42 42 42 42 41 41 41 42 42 42 42 41 40 40 39 38 38 38 38 38 37 36 36 36
41 42 43 43 43 43 43 44 44 44 44 44 44 44 44 44 44 44 44 43 43 43 43 43 43 43 42 42 42 42 41 41 41 41 41 41 41 41 41 40 39 38 37 37 37 36 36 36 36 35 35 35
42 43 44 44 45 45 45 45 45 45 45 45 45 45 45 45 45 44 44 44 43 43 43 43 43 43 43 42 42 42 41 41 40 40 40 40 40 40 40 39 37 36 36 36 35 34 34 35 34 34 33 33
43 44 45 46 46 47 47 47 47 46 46 46 46 46 46 45 45 45 44 44 44 44 43 43 43 43 43 42 42 41 41 41 40 40 39 39 39 39 38 38 36 36 35 34 33 33 33 33 32 31 31 31
44 45 46 46 47 48 48 48 48 47 47 47 47 46 46 46 46 46 45 45 44 44 44 44 43 43 43 42 42 41 41 40 40 39 39 38 38 38 37 37 36 35 34 33 33 32 32 31 30 30 29 29
45 46 47 47 48 48 49 49 49 49 48 48 48 47 47 47 47 46 46 45 45 44 44 44 44 43 43 43 42 41 41 40 39 39 38 38 38 37 37 36 35 34 33 33 32 30 30 30 29 29 28 29
46 46 47 47 48 48 49 49 49 50 50 50 49 49 48 48 48 47 46 46 45 45 44 44 44 43 43 43 42 41 41 40 39 39 38 38 37 37 37 36 35 34 33 32 32 30 29 29 28 28 28 29
47 47 47 48 48 48 49 49 49 50 51 51 51 50 50 49 48 47 47 46 46 45 44 44 44 43 43 43 42 41 41 40 39 39 38 38 37 37 37 36 35 34 33 32 31 31 30 29 28 28 28 28
47 47 48 48 49 49 49 50 50 51 51 51 51 51 50 50 49 48 47 47 46 45 44 44 44 43 43 43 42 42 41 40 40 39 38 38 37 37 36 36 35 34 33 31 31 30 30 30 29 28 28 28
Wind_Direction
304 305 305 304 302 299 296 295 295 295 295 294 294 294 295 295 295 295 294 293 294 295 296 297 297 298 298 298 297 297 297 297 297 297 296 295 295 294 292 290 288 285 282 279 277 275 273 271 268 266 262 258
302 303 304 303 302 300 298 296 296 295 295 295 294 294 294 295 295 295 293 293 294 295 296 297 297 298 298 298 298 297 298 298 297 297 296 296 295 294 293 291 290 287 284 280 277 275 273 271 268 265 263 259
301 301 303 302 301 301 300 298 297 296 296 295 294 294 294 295 295 294 293 293 294 295 296 297 297 297 297 297 297 297 298 298 298 297 297 296 295 294 293 292 290 288 285 282 278 275 273 270 268 265 263 260
301 301 302 301 301 301 301 300 299 298 296 295 295 294 294 295 295 294 293 294 295 295 296 297 297 296 297 297 297 297 297 298 298 297 297 296 295 294 293 291 290 289 286 283 280 277 274 271 268 265 263 260
301 301 302 301 300 300 301 300 300 300 298 296 296 295 296 296 296 294 293 294 295 296 296 296 297 296 296 297 297 297 297 297 297 297 297 297 296 294 293 291 290 288 286 284 281 278 275 272 268 265 263 260
301 301 301 300 300 300 300 300 300 300 299 298 297 296 297 297 296 295 294 295 295 296 296 296 296 296 296 297 297 297 297 298 297 297 298 297 296 295 293 292 289 287 286 284 281 279 276 273 269 266 263 260
300 300 300 300 300 300 300 300 300 301 300 299 298 297 298 298 296 295 295 295 295 296 296 296 296 296 296 296 297 297 297 298 297 298 298 298 297 296 294 292 290 287 285 283 281 279 277 275 271 268 264 260
299 299 300 300 299 299 300 300 300 300 301 300 300 299 298 298 297 296 296 296 296 296 296 297 297 296 296 296 297 297 297 298 298 298 299 298 298 297 295 293 290 288 285 283 281 279 277 275 273 270 266 261
298 299 299 299 299 299 299 300 300 300 301 301 301 300 299 298 298 297 297 296 296 296 297 297 297 297 296 297 297 297 298 298 298 298 299 298 298 297 296 294 291 289 285 282 281 279 277 276 274 271 268 263
298 298 298 298 298 299 299 299 300 300 300 301 301 301 300 299 299 299 298 297 297 297 297 297 297 297 296 297 297 298 298 298 298 298 299 299 298 298 297 295 293 290 286 283 280 279 277 275 274 272 269 265
298 298 298 298 298 298 299 299 299 300 300 301 302 302 301 300 300 299 299 298 297 297 297 297 297 297 297 297 298 298 298 298 299 299 299 299 299 299 298 296 294 291 288 284 281 279 277 276 274 273 270 267
298 297 297 297 297 298 298 298 299 299 300 300 301 302 302 301 300 300 299 298 298 297 297 297 297 297 297 297 297 298 298 298 299 299 299 299 299 299 298 297 296 293 289 285 282 279 277 276 275 273 271 269
297 297 297 297 297 297 297 298 298 298 299 300 300 301 302 301 300 300 300 299 298 298 297 297 297 297 297 297 297 298 298 298 298 298 299 299 299 299 299 298 297 293 289 286 283 280 278 276 275 273 272 270
297 297 296 296 296 296 296 297 297 297 298 299 300 300 301 301 300 300 300 299 298 297 297 297 297 297 297 297 297 297 298 298 298 298 298 299 299 299 299 299 298 294 290 286 284 281 279 277 275 273 273 271
296 296 296 296 296 296 296 296 296 297 297 298 298 299 300 301 300 300 300 299 298 297 297 297 297 297 297 297 297 297 297 297 297 298 298 298 299 299 299 299 298 295 290 286 284 282 279 278 276 274 273 272
296 295 295 295 295 295 295 295 295 296 296 297 298 298 299 300 300 300 299 299 298 297 297 297 297 297 296 296 297 297 296 297 297 297 298 298 299 299 299 299 298 295 290 286 284 282 280 279 277 275 274 273
295 295 295 295 295 294 294 294 294 295 295 296 297 298 299 299 300 299 299 299 298 297 297 296 296 296 296 296 296 296 296 296 297 297 297 298 298 299 299 299 298 295 290 286 284 282 281 280 278 276 275 273
296 295 295 294 294 294 294 294 294 294 295 295 296 297 298 298 299 299 298 298 298 297 296 296 296 295 295 296 295 295 295 296 296 296 296 297 298 299 299 298 297 294 290 286 284 283 282 280 279 278 276 274
296 295 294 294 294 294 294 294 294 294 294 295 295 296 297 297 298 298 298 298 297 297 296 296 295 295 295 295 295 295 295 295 295 295 296 297 298 298 298 298 297 294 290 287 284 283 282 281 280 279 277 274
296 295 294 294 294 294 294 294 294 294 294 294 294 295 296 296 297 297 297 297 297 296 296 295 295 295 294 294 294 294 294 294 294 294 295 296 297 298 298 298 296 294 291 287 285 283 282 281 280 279 277 275
297 295 295 294 294 294 293 293 293 293 293 293 294 294 295 295 296 296 296 296 296 295 295 295 294 294 294 294 294 294 294 294 294 294 294 295 296 297 298 297 296 294 291 287 285 283 283 282 280 279 278 276
297 296 295 294 294 294 293 293 293 293 293 293 293 293 294 294 295 295 296 295 295 295 295 294 294 293 293 293 293 293 293 293 293 293 293 294 296 297 297 296 295 293 291 288 285 284 284 282 280 279 278 276
298 297 296 295 295 294 294 293 293 293 292 292 292 292 293 293 294 295 295 295 294 294 294 294 293 293 292 292 292 292 292 292 292 292 293 294 295 296 296 296 295 293 291 288 285 285 284 282 280 279 278 276
300 299 297 296 295 294 294 294 293 292 292 292 292 292 292 293 293 294 294 294 293 293 293 293 293 292 292 291 291 291 291 291 291 291 292 293 294 296 296 295 294 293 291 288 286 285 283 282 281 279 277 276
301 300 298 297 295 295 294 294 293 292 292 291 291 291 291 292 292 293 293 293 293 293 293 293 292 292 291 291 291 291 290 290 290 290 291 292 294 295 294 294 293 292 290 288 286 285 283 283 281 279 277 276
302 300 299 297 296 295 294 294 293 292 292 291 290 290 291 291 291 292 292 293 292 292 292 292 292 291 291 290 290 290 290 289 289 289 290 291 293 293 293 293 292 291 290 287 285 284 284 283 282 279 276 276
302 301 299 298 297 295 294 293 293 292 292 291 290 290 290 290 290 291 291 292 291 291 291 291 291 291 290 289 289 289 289 288 288 288 288 289 291 292 292 291 290 290 288 286 285 284 282 282 282 280 277 276
303 302 300 298 297 296 294 293 292 292 291 290 290 289 289 289 289 289 290 290 290 290 290 290 290 290 289 288 288 287 287 287 287 287 287 288 289 290 290 289 289 287 286 284 283 282 281 281 280 279 279 280
305 303 302 300 298 297 295 294 293 291 291 290 289 289 289 288 288 288 288 288 289 289 289 289 289 288 288 287 286 286 286 286 285 285 286 287 287 288 287 287 287 285 284 282 280 279 280 279 278 278 282 283
306 304 303 301 299 298 296 295 293 292 290 289 289 288 288 287 286 286 286 287 287 288 288 288 287 287 287 286 285 285 285 285 284 284 284 285 286 286 285 285 284 284 282 280 278 277 277 277 277 279 282 282
306 305 304 302 300 299 297 296 294 293 291 290 289 288 287 286 285 284 285 286 286 286 286 286 286 286 285 285 284 284 283 283 283 283 283 283 284 284 283 282 281 282 280 278 276 275 275 275 275 276 279 280